{"data":{"norad_id":58738,"intl_designator":"2024-005L","name":"STARLINK-31108","alt_names":[],"object_type":"PAYLOAD","status":"ACTIVE","operator":null,"country":"US","launch_date":"2024-01-07","launch_site_code":"AFETR","launch_vehicle":null,"mission":null,"orbit_class":"UNKNOWN","rcs_meters":null,"size_class":null,"mass_kg":null,"dimensions":null,"purposes":["comms"],"wikipedia_slug":null,"has_3d_model":false,"image_url":null,"decayed_at":null,"tle_current":{"epoch":"2026-09-20T04:52:17.455584Z","epoch_age_seconds":175444,"freshness":"STALE","line1":"1 58738U 24005L   26263.20297981 -.00000033  00000+0  83161-5 0  9999","line2":"2 58738  43.0028 201.0945 0001133 269.3508  90.7214 15.27575545150186","mean_motion":15.27575545,"eccentricity":0.0001133,"inclination_deg":43.0028,"raan_deg":201.0945,"arg_perigee_deg":269.3508,"mean_anomaly_deg":90.7214,"bstar":8.3161e-6,"rev_number":15018,"period_min":94.267023631882,"perigee_km":482.28506204866,"apogee_km":483.83980984084,"semimajor_km":6861.1994359448,"source":"CELESTRAK","updated_at":"2026-09-21T09:00:33.953242Z"}}}